owner,sensor,date,latitude,longitude,vertical_datum,mass_concentration_of_oxygen_in_sea_water,qcFlag 
SCCF RECON,ioos:station:SCCF:12:1,2011-12-01T00:00:00Z,26.4966,-82.1479,2.331,-9999.0,1111122 
SCCF RECON,ioos:station:SCCF:12:1,2011-12-01T01:00:00Z,26.4966,-82.1479,2.269,-9999.0,1111122 
SCCF RECON,ioos:station:SCCF:12:1,2011-12-01T02:00:00Z,26.4966,-82.1479,2.207,-9999.0,1111122 
SCCF RECON,ioos:station:SCCF:12:1,2011-12-01T03:00:00Z,26.4966,-82.1479,2.167,-9999.0,1111122 
SCCF RECON,ioos:station:SCCF:12:1,2011-12-01T04:00:00Z,26.4966,-82.1479,2.139,-9999.0,1111122 
SCCF RECON,ioos:station:SCCF:12:1,2011-12-01T05:00:00Z,26.4966,-82.1479,2.127,-9999.0,1111122 
SCCF RECON,ioos:station:SCCF:12:1,2011-12-01T06:00:00Z,26.4966,-82.1479,2.133,-9999.0,1111122 
SCCF RECON,ioos:station:SCCF:12:1,2011-12-01T07:00:00Z,26.4966,-82.1479,2.175,-9999.0,1111122 
SCCF RECON,ioos:station:SCCF:12:1,2011-12-01T08:00:00Z,26.4966,-82.1479,2.232,-9999.0,1111122 
SCCF RECON,ioos:station:SCCF:12:1,2011-12-01T09:00:00Z,26.4966,-82.1479,2.274,-9999.0,1111122 
SCCF RECON,ioos:station:SCCF:12:1,2011-12-01T10:00:00Z,26.4966,-82.1479,2.274,-9999.0,1111122 
SCCF RECON,ioos:station:SCCF:12:1,2011-12-01T11:00:00Z,26.4966,-82.1479,2.248,-9999.0,1111122 
SCCF RECON,ioos:station:SCCF:12:1,2011-12-01T12:00:00Z,26.4966,-82.1479,2.193,-9999.0,1111122 
SCCF RECON,ioos:station:SCCF:12:1,2011-12-01T13:00:00Z,26.4966,-82.1479,2.131,-9999.0,1111122 
SCCF RECON,ioos:station:SCCF:12:1,2011-12-01T14:00:00Z,26.4966,-82.1479,2.056,-9999.0,1111122 
SCCF RECON,ioos:station:SCCF:12:1,2011-12-01T15:00:00Z,26.4966,-82.1479,1.974,-9999.0,1111122 
SCCF RECON,ioos:station:SCCF:12:1,2011-12-01T16:00:00Z,26.4966,-82.1479,1.905,-9999.0,1111122 
SCCF RECON,ioos:station:SCCF:12:1,2011-12-01T17:00:00Z,26.4966,-82.1479,1.868,-9999.0,1111122 
SCCF RECON,ioos:station:SCCF:12:1,2011-12-01T18:00:00Z,26.4966,-82.1479,1.886,-9999.0,1111122 
SCCF RECON,ioos:station:SCCF:12:1,2011-12-01T19:00:00Z,26.4966,-82.1479,1.963,-9999.0,1111122 
SCCF RECON,ioos:station:SCCF:12:1,2011-12-01T20:00:00Z,26.4966,-82.1479,2.074,-9999.0,1111122 
SCCF RECON,ioos:station:SCCF:12:1,2011-12-01T21:00:00Z,26.4966,-82.1479,2.186,-9999.0,1111122 
SCCF RECON,ioos:station:SCCF:12:1,2011-12-01T22:00:00Z,26.4966,-82.1479,2.262,-9999.0,1111122 
SCCF RECON,ioos:station:SCCF:12:1,2011-12-01T23:00:00Z,26.4966,-82.1479,2.294,-9999.0,1111122 
SCCF RECON,ioos:station:SCCF:12:1,2011-12-02T00:00:00Z,26.4966,-82.1479,2.291,-9999.0,1111122 
SCCF RECON,ioos:station:SCCF:12:1,2011-12-02T01:00:00Z,26.4966,-82.1479,2.249,-9999.0,1111122 
SCCF RECON,ioos:station:SCCF:12:1,2011-12-02T02:00:00Z,26.4966,-82.1479,2.176,-9999.0,1111122 
SCCF RECON,ioos:station:SCCF:12:1,2011-12-02T03:00:00Z,26.4966,-82.1479,2.111,-9999.0,1111122 
SCCF RECON,ioos:station:SCCF:12:1,2011-12-02T04:00:00Z,26.4966,-82.1479,2.058,-9999.0,1111122 
SCCF RECON,ioos:station:SCCF:12:1,2011-12-02T05:00:00Z,26.4966,-82.1479,2.034,-9999.0,1111122 
SCCF RECON,ioos:station:SCCF:12:1,2011-12-02T06:00:00Z,26.4966,-82.1479,2.025,-9999.0,1111122 
SCCF RECON,ioos:station:SCCF:12:1,2011-12-02T07:00:00Z,26.4966,-82.1479,2.05,-9999.0,1111122 
SCCF RECON,ioos:station:SCCF:12:1,2011-12-02T08:00:00Z,26.4966,-82.1479,2.097,-9999.0,1111122 
SCCF RECON,ioos:station:SCCF:12:1,2011-12-02T09:00:00Z,26.4966,-82.1479,2.146,-9999.0,1111122 
SCCF RECON,ioos:station:SCCF:12:1,2011-12-02T10:00:00Z,26.4966,-82.1479,2.179,-9999.0,1111122 
SCCF RECON,ioos:station:SCCF:12:1,2011-12-02T11:00:00Z,26.4966,-82.1479,2.203,-9999.0,1111122 
SCCF RECON,ioos:station:SCCF:12:1,2011-12-02T12:00:00Z,26.4966,-82.1479,2.217,-9999.0,1111122 
SCCF RECON,ioos:station:SCCF:12:1,2011-12-02T13:00:00Z,26.4966,-82.1479,2.194,-9999.0,1111122 
SCCF RECON,ioos:station:SCCF:12:1,2011-12-02T14:00:00Z,26.4966,-82.1479,2.133,-9999.0,1111122 
SCCF RECON,ioos:station:SCCF:12:1,2011-12-02T15:00:00Z,26.4966,-82.1479,2.073,-9999.0,1111122 
SCCF RECON,ioos:station:SCCF:12:1,2011-12-02T16:00:00Z,26.4966,-82.1479,2.02,-9999.0,1111122 
SCCF RECON,ioos:station:SCCF:12:1,2011-12-02T17:00:00Z,26.4966,-82.1479,1.99,-9999.0,1111122 
SCCF RECON,ioos:station:SCCF:12:1,2011-12-02T18:00:00Z,26.4966,-82.1479,1.992,-9999.0,1111122 
SCCF RECON,ioos:station:SCCF:12:1,2011-12-02T19:00:00Z,26.4966,-82.1479,1.999,-9999.0,1111122 
SCCF RECON,ioos:station:SCCF:12:1,2011-12-02T20:00:00Z,26.4966,-82.1479,2.014,-9999.0,1111122 
SCCF RECON,ioos:station:SCCF:12:1,2011-12-02T21:00:00Z,26.4966,-82.1479,2.09,-9999.0,1111122 
SCCF RECON,ioos:station:SCCF:12:1,2011-12-02T22:00:00Z,26.4966,-82.1479,2.212,-9999.0,1111122 
SCCF RECON,ioos:station:SCCF:12:1,2011-12-02T23:00:00Z,26.4966,-82.1479,2.297,-9999.0,1111122 
SCCF RECON,ioos:station:SCCF:12:1,2011-12-03T00:00:00Z,26.4966,-82.1479,2.36,-9999.0,1111122 
SCCF RECON,ioos:station:SCCF:12:1,2011-12-03T01:00:00Z,26.4966,-82.1479,2.36,-9999.0,1111122 
SCCF RECON,ioos:station:SCCF:12:1,2011-12-03T02:00:00Z,26.4966,-82.1479,2.289,-9999.0,1111122 
SCCF RECON,ioos:station:SCCF:12:1,2011-12-03T03:00:00Z,26.4966,-82.1479,2.189,-9999.0,1111122 
SCCF RECON,ioos:station:SCCF:12:1,2011-12-03T04:00:00Z,26.4966,-82.1479,2.096,-9999.0,1111122 
SCCF RECON,ioos:station:SCCF:12:1,2011-12-03T05:00:00Z,26.4966,-82.1479,2.03,-9999.0,1111122 
SCCF RECON,ioos:station:SCCF:12:1,2011-12-03T06:00:00Z,26.4966,-82.1479,1.979,-9999.0,1111122 
SCCF RECON,ioos:station:SCCF:12:1,2011-12-03T07:00:00Z,26.4966,-82.1479,1.937,-9999.0,1111122 
SCCF RECON,ioos:station:SCCF:12:1,2011-12-03T08:00:00Z,26.4966,-82.1479,1.932,-9999.0,1111122 
SCCF RECON,ioos:station:SCCF:12:1,2011-12-03T09:00:00Z,26.4966,-82.1479,1.989,-9999.0,1111122 
SCCF RECON,ioos:station:SCCF:12:1,2011-12-03T10:00:00Z,26.4966,-82.1479,2.079,-9999.0,1111122 
SCCF RECON,ioos:station:SCCF:12:1,2011-12-03T11:00:00Z,26.4966,-82.1479,2.16,-9999.0,1111122 
SCCF RECON,ioos:station:SCCF:12:1,2011-12-03T12:00:00Z,26.4966,-82.1479,2.214,-9999.0,1111122 
SCCF RECON,ioos:station:SCCF:12:1,2011-12-03T13:00:00Z,26.4966,-82.1479,2.239,-9999.0,1111122 
SCCF RECON,ioos:station:SCCF:12:1,2011-12-03T14:00:00Z,26.4966,-82.1479,2.213,-9999.0,1111122 
SCCF RECON,ioos:station:SCCF:12:1,2011-12-03T15:00:00Z,26.4966,-82.1479,2.15,-9999.0,1111122 
SCCF RECON,ioos:station:SCCF:12:1,2011-12-03T16:00:00Z,26.4966,-82.1479,2.097,-9999.0,1111122 
SCCF RECON,ioos:station:SCCF:12:1,2011-12-03T17:00:00Z,26.4966,-82.1479,2.085,-9999.0,1111122 
SCCF RECON,ioos:station:SCCF:12:1,2011-12-03T18:00:00Z,26.4966,-82.1479,2.07,-9999.0,1111122 
SCCF RECON,ioos:station:SCCF:12:1,2011-12-03T19:00:00Z,26.4966,-82.1479,2.085,-9999.0,1111122 
SCCF RECON,ioos:station:SCCF:12:1,2011-12-03T20:00:00Z,26.4966,-82.1479,2.147,-9999.0,1111122 
SCCF RECON,ioos:station:SCCF:12:1,2011-12-03T21:00:00Z,26.4966,-82.1479,2.239,-9999.0,1111122 
SCCF RECON,ioos:station:SCCF:12:1,2011-12-03T22:00:00Z,26.4966,-82.1479,2.333,-9999.0,1111122 
SCCF RECON,ioos:station:SCCF:12:1,2011-12-03T23:00:00Z,26.4966,-82.1479,2.39,-9999.0,1111122 
SCCF RECON,ioos:station:SCCF:12:1,2011-12-04T00:00:00Z,26.4966,-82.1479,2.421,-9999.0,1111122 
SCCF RECON,ioos:station:SCCF:12:1,2011-12-04T01:00:00Z,26.4966,-82.1479,2.421,-9999.0,1111122 
SCCF RECON,ioos:station:SCCF:12:1,2011-12-04T02:00:00Z,26.4966,-82.1479,2.397,-9999.0,1111122 
SCCF RECON,ioos:station:SCCF:12:1,2011-12-04T03:00:00Z,26.4966,-82.1479,2.35,-9999.0,1111122 
SCCF RECON,ioos:station:SCCF:12:1,2011-12-04T04:00:00Z,26.4966,-82.1479,2.261,-9999.0,1111122 
SCCF RECON,ioos:station:SCCF:12:1,2011-12-04T05:00:00Z,26.4966,-82.1479,2.16,-9999.0,1111122 
SCCF RECON,ioos:station:SCCF:12:1,2011-12-04T06:00:00Z,26.4966,-82.1479,2.069,-9999.0,1111122 
SCCF RECON,ioos:station:SCCF:12:1,2011-12-04T07:00:00Z,26.4966,-82.1479,1.981,-9999.0,1111122 
SCCF RECON,ioos:station:SCCF:12:1,2011-12-04T08:00:00Z,26.4966,-82.1479,1.942,-9999.0,1111122 
SCCF RECON,ioos:station:SCCF:12:1,2011-12-04T09:00:00Z,26.4966,-82.1479,1.964,-9999.0,1111122 
SCCF RECON,ioos:station:SCCF:12:1,2011-12-04T10:00:00Z,26.4966,-82.1479,2.066,-9999.0,1111122 
SCCF RECON,ioos:station:SCCF:12:1,2011-12-04T11:00:00Z,26.4966,-82.1479,2.179,-9999.0,1111122 
SCCF RECON,ioos:station:SCCF:12:1,2011-12-04T12:00:00Z,26.4966,-82.1479,2.242,-9999.0,1111122 
SCCF RECON,ioos:station:SCCF:12:1,2011-12-04T13:00:00Z,26.4966,-82.1479,2.251,-9999.0,1111122 
SCCF RECON,ioos:station:SCCF:12:1,2011-12-04T14:00:00Z,26.4966,-82.1479,2.252,-9999.0,1111122 
SCCF RECON,ioos:station:SCCF:12:1,2011-12-04T15:00:00Z,26.4966,-82.1479,2.24,-9999.0,1111122 
SCCF RECON,ioos:station:SCCF:12:1,2011-12-04T16:00:00Z,26.4966,-82.1479,2.212,-9999.0,1111122 
SCCF RECON,ioos:station:SCCF:12:1,2011-12-04T17:00:00Z,26.4966,-82.1479,2.159,-9999.0,1111122 
SCCF RECON,ioos:station:SCCF:12:1,2011-12-04T18:00:00Z,26.4966,-82.1479,2.12,-9999.0,1111122 
SCCF RECON,ioos:station:SCCF:12:1,2011-12-04T19:00:00Z,26.4966,-82.1479,2.105,-9999.0,1111122 
SCCF RECON,ioos:station:SCCF:12:1,2011-12-04T20:00:00Z,26.4966,-82.1479,2.119,-9999.0,1111122 
SCCF RECON,ioos:station:SCCF:12:1,2011-12-04T21:00:00Z,26.4966,-82.1479,2.17,-9999.0,1111122 
SCCF RECON,ioos:station:SCCF:12:1,2011-12-04T22:00:00Z,26.4966,-82.1479,2.244,-9999.0,1111122 
SCCF RECON,ioos:station:SCCF:12:1,2011-12-04T23:00:00Z,26.4966,-82.1479,2.321,-9999.0,1111122 
SCCF RECON,ioos:station:SCCF:12:1,2011-12-05T00:00:00Z,26.4966,-82.1479,2.4,-9999.0,1111122 
SCCF RECON,ioos:station:SCCF:12:1,2011-12-05T01:00:00Z,26.4966,-82.1479,2.43,-9999.0,1111122 
SCCF RECON,ioos:station:SCCF:12:1,2011-12-05T02:00:00Z,26.4966,-82.1479,2.44,-9999.0,1111122 
SCCF RECON,ioos:station:SCCF:12:1,2011-12-05T03:00:00Z,26.4966,-82.1479,2.409,-9999.0,1111122 
SCCF RECON,ioos:station:SCCF:12:1,2011-12-05T04:00:00Z,26.4966,-82.1479,2.33,-9999.0,1111122 
SCCF RECON,ioos:station:SCCF:12:1,2011-12-05T05:00:00Z,26.4966,-82.1479,2.222,-9999.0,1111122 
SCCF RECON,ioos:station:SCCF:12:1,2011-12-05T06:00:00Z,26.4966,-82.1479,2.119,-9999.0,1111122 
SCCF RECON,ioos:station:SCCF:12:1,2011-12-05T07:00:00Z,26.4966,-82.1479,2.011,-9999.0,1111122 
SCCF RECON,ioos:station:SCCF:12:1,2011-12-05T08:00:00Z,26.4966,-82.1479,1.939,-9999.0,1111122 
SCCF RECON,ioos:station:SCCF:12:1,2011-12-05T09:00:00Z,26.4966,-82.1479,1.896,-9999.0,1111122 
SCCF RECON,ioos:station:SCCF:12:1,2011-12-05T10:00:00Z,26.4966,-82.1479,1.901,-9999.0,1111122 
SCCF RECON,ioos:station:SCCF:12:1,2011-12-05T11:00:00Z,26.4966,-82.1479,2.0,-9999.0,1111122 
SCCF RECON,ioos:station:SCCF:12:1,2011-12-05T12:00:00Z,26.4966,-82.1479,2.12,-9999.0,1111122 
SCCF RECON,ioos:station:SCCF:12:1,2011-12-05T13:00:00Z,26.4966,-82.1479,2.21,-9999.0,1111122 
SCCF RECON,ioos:station:SCCF:12:1,2011-12-05T14:00:00Z,26.4966,-82.1479,2.281,-9999.0,1111122 
SCCF RECON,ioos:station:SCCF:12:1,2011-12-05T15:00:00Z,26.4966,-82.1479,2.317,-9999.0,1111122 
SCCF RECON,ioos:station:SCCF:12:1,2011-12-05T16:00:00Z,26.4966,-82.1479,2.293,-9999.0,1111122 
SCCF RECON,ioos:station:SCCF:12:1,2011-12-05T17:00:00Z,26.4966,-82.1479,2.252,-9999.0,1111122 
SCCF RECON,ioos:station:SCCF:12:1,2011-12-05T18:00:00Z,26.4966,-82.1479,2.21,-9999.0,1111122 
SCCF RECON,ioos:station:SCCF:12:1,2011-12-05T19:00:00Z,26.4966,-82.1479,2.199,-9999.0,1111122 
SCCF RECON,ioos:station:SCCF:12:1,2011-12-05T20:00:00Z,26.4966,-82.1479,2.201,-9999.0,1111122 
SCCF RECON,ioos:station:SCCF:12:1,2011-12-05T21:00:00Z,26.4966,-82.1479,2.229,-9999.0,1111122 
SCCF RECON,ioos:station:SCCF:12:1,2011-12-05T22:00:00Z,26.4966,-82.1479,2.27,-9999.0,1111122 
SCCF RECON,ioos:station:SCCF:12:1,2011-12-05T23:00:00Z,26.4966,-82.1479,2.334,-9999.0,1111122 
SCCF RECON,ioos:station:SCCF:12:1,2011-12-06T00:00:00Z,26.4966,-82.1479,2.398,-9999.0,1111122 
SCCF RECON,ioos:station:SCCF:12:1,2011-12-06T01:00:00Z,26.4966,-82.1479,2.44,-9999.0,1111122 
SCCF RECON,ioos:station:SCCF:12:1,2011-12-06T02:00:00Z,26.4966,-82.1479,2.46,-9999.0,1111122 
SCCF RECON,ioos:station:SCCF:12:1,2011-12-06T03:00:00Z,26.4966,-82.1479,2.46,-9999.0,1111122 
SCCF RECON,ioos:station:SCCF:12:1,2011-12-06T04:00:00Z,26.4966,-82.1479,2.4,-9999.0,1111122 
SCCF RECON,ioos:station:SCCF:12:1,2011-12-06T05:00:00Z,26.4966,-82.1479,2.316,-9999.0,1111122 
SCCF RECON,ioos:station:SCCF:12:1,2011-12-06T06:00:00Z,26.4966,-82.1479,2.2,-9999.0,1111122 
SCCF RECON,ioos:station:SCCF:12:1,2011-12-06T07:00:00Z,26.4966,-82.1479,2.079,-9999.0,1111122 
SCCF RECON,ioos:station:SCCF:12:1,2011-12-06T08:00:00Z,26.4966,-82.1479,1.97,-9999.0,1111122 
SCCF RECON,ioos:station:SCCF:12:1,2011-12-06T09:00:00Z,26.4966,-82.1479,1.874,-9999.0,1111122 
SCCF RECON,ioos:station:SCCF:12:1,2011-12-06T10:00:00Z,26.4966,-82.1479,1.825,-9999.0,1111122 
SCCF RECON,ioos:station:SCCF:12:1,2011-12-06T11:00:00Z,26.4966,-82.1479,1.87,-9999.0,1111122 
SCCF RECON,ioos:station:SCCF:12:1,2011-12-06T12:00:00Z,26.4966,-82.1479,1.99,-9999.0,1111122 
SCCF RECON,ioos:station:SCCF:12:1,2011-12-06T13:00:00Z,26.4966,-82.1479,2.11,-9999.0,1111122 
SCCF RECON,ioos:station:SCCF:12:1,2011-12-06T14:00:00Z,26.4966,-82.1479,2.206,-9999.0,1111122 
SCCF RECON,ioos:station:SCCF:12:1,2011-12-06T15:00:00Z,26.4966,-82.1479,2.263,-9999.0,1111122 
SCCF RECON,ioos:station:SCCF:12:1,2011-12-06T16:00:00Z,26.4966,-82.1479,2.3,-9999.0,1111122 
SCCF RECON,ioos:station:SCCF:12:1,2011-12-06T17:00:00Z,26.4966,-82.1479,2.299,-9999.0,1111122 
SCCF RECON,ioos:station:SCCF:12:1,2011-12-06T18:00:00Z,26.4966,-82.1479,2.27,-9999.0,1111122 
SCCF RECON,ioos:station:SCCF:12:1,2011-12-06T19:00:00Z,26.4966,-82.1479,2.224,-9999.0,1111122 
SCCF RECON,ioos:station:SCCF:12:1,2011-12-06T20:00:00Z,26.4966,-82.1479,2.19,-9999.0,1111122 
SCCF RECON,ioos:station:SCCF:12:1,2011-12-06T21:00:00Z,26.4966,-82.1479,2.171,-9999.0,1111122 
SCCF RECON,ioos:station:SCCF:12:1,2011-12-06T22:00:00Z,26.4966,-82.1479,2.21,-9999.0,1111122 
SCCF RECON,ioos:station:SCCF:12:1,2011-12-06T23:00:00Z,26.4966,-82.1479,2.27,-9999.0,1111122 
SCCF RECON,ioos:station:SCCF:12:1,2011-12-07T00:00:00Z,26.4966,-82.1479,2.35,-9999.0,1111122 
SCCF RECON,ioos:station:SCCF:12:1,2011-12-07T01:00:00Z,26.4966,-82.1479,2.43,-9999.0,1111122 
SCCF RECON,ioos:station:SCCF:12:1,2011-12-07T02:00:00Z,26.4966,-82.1479,2.47,-9999.0,1111122 
SCCF RECON,ioos:station:SCCF:12:1,2011-12-07T03:00:00Z,26.4966,-82.1479,2.486,-9999.0,1111122 
SCCF RECON,ioos:station:SCCF:12:1,2011-12-07T04:00:00Z,26.4966,-82.1479,2.45,-9999.0,1111122 
SCCF RECON,ioos:station:SCCF:12:1,2011-12-07T05:00:00Z,26.4966,-82.1479,2.38,-9999.0,1111122 
SCCF RECON,ioos:station:SCCF:12:1,2011-12-07T06:00:00Z,26.4966,-82.1479,2.262,-9999.0,1111122 
SCCF RECON,ioos:station:SCCF:12:1,2011-12-07T07:00:00Z,26.4966,-82.1479,2.13,-9999.0,1111122 
SCCF RECON,ioos:station:SCCF:12:1,2011-12-07T08:00:00Z,26.4966,-82.1479,2.006,-9999.0,1111122 
SCCF RECON,ioos:station:SCCF:12:1,2011-12-07T09:00:00Z,26.4966,-82.1479,1.89,-9999.0,1111122 
SCCF RECON,ioos:station:SCCF:12:1,2011-12-07T10:00:00Z,26.4966,-82.1479,1.8,-9999.0,1111122 
SCCF RECON,ioos:station:SCCF:12:1,2011-12-07T11:00:00Z,26.4966,-82.1479,1.76,-9999.0,1111122 
SCCF RECON,ioos:station:SCCF:12:1,2011-12-07T12:00:00Z,26.4966,-82.1479,1.83,-9999.0,1111122 
SCCF RECON,ioos:station:SCCF:12:1,2011-12-07T13:00:00Z,26.4966,-82.1479,1.98,-9999.0,1111122 
SCCF RECON,ioos:station:SCCF:12:1,2011-12-07T14:00:00Z,26.4966,-82.1479,2.118,-9999.0,1111122 
SCCF RECON,ioos:station:SCCF:12:1,2011-12-07T15:00:00Z,26.4966,-82.1479,2.22,-9999.0,1111122 
SCCF RECON,ioos:station:SCCF:12:1,2011-12-07T16:00:00Z,26.4966,-82.1479,2.28,-9999.0,1111122 
SCCF RECON,ioos:station:SCCF:12:1,2011-12-07T17:00:00Z,26.4966,-82.1479,2.297,-9999.0,1111122 
SCCF RECON,ioos:station:SCCF:12:1,2011-12-07T18:00:00Z,26.4966,-82.1479,2.27,-9999.0,1111122 
SCCF RECON,ioos:station:SCCF:12:1,2011-12-07T19:00:00Z,26.4966,-82.1479,2.231,-9999.0,1111122 
SCCF RECON,ioos:station:SCCF:12:1,2011-12-07T20:00:00Z,26.4966,-82.1479,2.18,-9999.0,1111122 
SCCF RECON,ioos:station:SCCF:12:1,2011-12-07T21:00:00Z,26.4966,-82.1479,2.15,-9999.0,1111122 
SCCF RECON,ioos:station:SCCF:12:1,2011-12-07T22:00:00Z,26.4966,-82.1479,2.17,-9999.0,1111122 
SCCF RECON,ioos:station:SCCF:12:1,2011-12-07T23:00:00Z,26.4966,-82.1479,2.232,-9999.0,1111122 
SCCF RECON,ioos:station:SCCF:12:1,2011-12-08T00:00:00Z,26.4966,-82.1479,2.37,-9999.0,1111122 
SCCF RECON,ioos:station:SCCF:12:1,2011-12-08T01:00:00Z,26.4966,-82.1479,2.445,-9999.0,1111122 
SCCF RECON,ioos:station:SCCF:12:1,2011-12-08T02:00:00Z,26.4966,-82.1479,2.47,-9999.0,1111122 
SCCF RECON,ioos:station:SCCF:12:1,2011-12-08T03:00:00Z,26.4966,-82.1479,2.377,-9999.0,1111122 
SCCF RECON,ioos:station:SCCF:12:1,2011-12-08T04:00:00Z,26.4966,-82.1479,2.314,-9999.0,1111122 
SCCF RECON,ioos:station:SCCF:12:1,2011-12-08T05:00:00Z,26.4966,-82.1479,2.258,-9999.0,1111122 
SCCF RECON,ioos:station:SCCF:12:1,2011-12-08T06:00:00Z,26.4966,-82.1479,2.194,-9999.0,1111122 
SCCF RECON,ioos:station:SCCF:12:1,2011-12-08T07:00:00Z,26.4966,-82.1479,2.098,-9999.0,1111122 
SCCF RECON,ioos:station:SCCF:12:1,2011-12-08T08:00:00Z,26.4966,-82.1479,1.991,-9999.0,1111122 
SCCF RECON,ioos:station:SCCF:12:1,2011-12-08T09:00:00Z,26.4966,-82.1479,1.887,-9999.0,1111122 
SCCF RECON,ioos:station:SCCF:12:1,2011-12-08T10:00:00Z,26.4966,-82.1479,1.771,-9999.0,1111122 
SCCF RECON,ioos:station:SCCF:12:1,2011-12-08T11:00:00Z,26.4966,-82.1479,1.667,-9999.0,1111122 
SCCF RECON,ioos:station:SCCF:12:1,2011-12-08T12:00:00Z,26.4966,-82.1479,1.609,-9999.0,1111122 
SCCF RECON,ioos:station:SCCF:12:1,2011-12-08T13:00:00Z,26.4966,-82.1479,1.653,-9999.0,1111122 
SCCF RECON,ioos:station:SCCF:12:1,2011-12-08T14:00:00Z,26.4966,-82.1479,1.788,-9999.0,1111122 
SCCF RECON,ioos:station:SCCF:12:1,2011-12-08T15:00:00Z,26.4966,-82.1479,1.929,-9999.0,1111122 
SCCF RECON,ioos:station:SCCF:12:1,2011-12-08T16:00:00Z,26.4966,-82.1479,2.037,-9999.0,1111122 
SCCF RECON,ioos:station:SCCF:12:1,2011-12-08T17:00:00Z,26.4966,-82.1479,2.115,-9999.0,1111122 
SCCF RECON,ioos:station:SCCF:12:1,2011-12-08T18:00:00Z,26.4966,-82.1479,2.16,-9999.0,1111122 
SCCF RECON,ioos:station:SCCF:12:1,2011-12-08T19:00:00Z,26.4966,-82.1479,2.154,-9999.0,1111122 
SCCF RECON,ioos:station:SCCF:12:1,2011-12-08T20:00:00Z,26.4966,-82.1479,2.13,-9999.0,1111122 
SCCF RECON,ioos:station:SCCF:12:1,2011-12-08T21:00:00Z,26.4966,-82.1479,2.14,-9999.0,1111122 
SCCF RECON,ioos:station:SCCF:12:1,2011-12-08T22:00:00Z,26.4966,-82.1479,2.19,-9999.0,1111122 
SCCF RECON,ioos:station:SCCF:12:1,2011-12-08T23:00:00Z,26.4966,-82.1479,2.23,-9999.0,1111122 
SCCF RECON,ioos:station:SCCF:12:1,2011-12-09T00:00:00Z,26.4966,-82.1479,2.29,-9999.0,1111122 
SCCF RECON,ioos:station:SCCF:12:1,2011-12-09T01:00:00Z,26.4966,-82.1479,2.352,-9999.0,1111122 
SCCF RECON,ioos:station:SCCF:12:1,2011-12-09T02:00:00Z,26.4966,-82.1479,2.41,-9999.0,1111122 
SCCF RECON,ioos:station:SCCF:12:1,2011-12-09T03:00:00Z,26.4966,-82.1479,2.46,-9999.0,1111122 
SCCF RECON,ioos:station:SCCF:12:1,2011-12-09T04:00:00Z,26.4966,-82.1479,2.487,-9999.0,1111122 
SCCF RECON,ioos:station:SCCF:12:1,2011-12-09T05:00:00Z,26.4966,-82.1479,2.46,-9999.0,1111122 
SCCF RECON,ioos:station:SCCF:12:1,2011-12-09T06:00:00Z,26.4966,-82.1479,2.378,-9999.0,1111122 
SCCF RECON,ioos:station:SCCF:12:1,2011-12-09T07:00:00Z,26.4966,-82.1479,2.252,-9999.0,1111122 
SCCF RECON,ioos:station:SCCF:12:1,2011-12-09T08:00:00Z,26.4966,-82.1479,2.123,-9999.0,1111122 
SCCF RECON,ioos:station:SCCF:12:1,2011-12-09T09:00:00Z,26.4966,-82.1479,1.986,-9999.0,1111122 
SCCF RECON,ioos:station:SCCF:12:1,2011-12-09T10:00:00Z,26.4966,-82.1479,1.868,-9999.0,1111122 
SCCF RECON,ioos:station:SCCF:12:1,2011-12-09T11:00:00Z,26.4966,-82.1479,1.771,-9999.0,1111122 
SCCF RECON,ioos:station:SCCF:12:1,2011-12-09T12:00:00Z,26.4966,-82.1479,1.701,-9999.0,1111122 
SCCF RECON,ioos:station:SCCF:12:1,2011-12-09T13:00:00Z,26.4966,-82.1479,1.724,-9999.0,1111122 
SCCF RECON,ioos:station:SCCF:12:1,2011-12-09T14:00:00Z,26.4966,-82.1479,1.872,-9999.0,1111122 
SCCF RECON,ioos:station:SCCF:12:1,2011-12-09T15:00:00Z,26.4966,-82.1479,2.03,-9999.0,1111122 
SCCF RECON,ioos:station:SCCF:12:1,2011-12-09T16:00:00Z,26.4966,-82.1479,2.148,-9999.0,1111122 
SCCF RECON,ioos:station:SCCF:12:1,2011-12-09T17:00:00Z,26.4966,-82.1479,2.236,-9999.0,1111122 
SCCF RECON,ioos:station:SCCF:12:1,2011-12-09T18:00:00Z,26.4966,-82.1479,2.27,-9999.0,1111122 
SCCF RECON,ioos:station:SCCF:12:1,2011-12-09T19:00:00Z,26.4966,-82.1479,2.25,-9999.0,1111122 
SCCF RECON,ioos:station:SCCF:12:1,2011-12-09T20:00:00Z,26.4966,-82.1479,2.19,-9999.0,1111122 
SCCF RECON,ioos:station:SCCF:12:1,2011-12-09T21:00:00Z,26.4966,-82.1479,2.14,-9999.0,1111122 
SCCF RECON,ioos:station:SCCF:12:1,2011-12-09T22:00:00Z,26.4966,-82.1479,2.173,-9999.0,1111122 
SCCF RECON,ioos:station:SCCF:12:1,2011-12-09T23:00:00Z,26.4966,-82.1479,2.21,-9999.0,1111122 
SCCF RECON,ioos:station:SCCF:12:1,2011-12-10T00:00:00Z,26.4966,-82.1479,2.22,-9999.0,1111122 
SCCF RECON,ioos:station:SCCF:12:1,2011-12-10T01:00:00Z,26.4966,-82.1479,2.256,-9999.0,1111122 
SCCF RECON,ioos:station:SCCF:12:1,2011-12-10T02:00:00Z,26.4966,-82.1479,2.32,-9999.0,1111122 
SCCF RECON,ioos:station:SCCF:12:1,2011-12-10T03:00:00Z,26.4966,-82.1479,2.4,-9999.0,1111122 
SCCF RECON,ioos:station:SCCF:12:1,2011-12-10T04:00:00Z,26.4966,-82.1479,2.454,-9999.0,1111122 
SCCF RECON,ioos:station:SCCF:12:1,2011-12-10T05:00:00Z,26.4966,-82.1479,2.47,-9999.0,1111122 
SCCF RECON,ioos:station:SCCF:12:1,2011-12-10T06:00:00Z,26.4966,-82.1479,2.4,-9999.0,1111122 
SCCF RECON,ioos:station:SCCF:12:1,2011-12-10T07:00:00Z,26.4966,-82.1479,2.279,-9999.0,1111122 
SCCF RECON,ioos:station:SCCF:12:1,2011-12-10T08:00:00Z,26.4966,-82.1479,2.131,-9999.0,1111122 
SCCF RECON,ioos:station:SCCF:12:1,2011-12-10T09:00:00Z,26.4966,-82.1479,1.99,-9999.0,1111122 
SCCF RECON,ioos:station:SCCF:12:1,2011-12-10T10:00:00Z,26.4966,-82.1479,1.87,-9999.0,1111122 
SCCF RECON,ioos:station:SCCF:12:1,2011-12-10T11:00:00Z,26.4966,-82.1479,1.772,-9999.0,1111122 
SCCF RECON,ioos:station:SCCF:12:1,2011-12-10T12:00:00Z,26.4966,-82.1479,1.699,-9999.0,1111122 
SCCF RECON,ioos:station:SCCF:12:1,2011-12-10T13:00:00Z,26.4966,-82.1479,1.66,-9999.0,1111122 
SCCF RECON,ioos:station:SCCF:12:1,2011-12-10T14:00:00Z,26.4966,-82.1479,1.738,-9999.0,1111122 
SCCF RECON,ioos:station:SCCF:12:1,2011-12-10T15:00:00Z,26.4966,-82.1479,1.91,-9999.0,1111122 
SCCF RECON,ioos:station:SCCF:12:1,2011-12-10T16:00:00Z,26.4966,-82.1479,2.053,-9999.0,1111122 
SCCF RECON,ioos:station:SCCF:12:1,2011-12-10T17:00:00Z,26.4966,-82.1479,2.166,-9999.0,1111122 
SCCF RECON,ioos:station:SCCF:12:1,2011-12-10T18:00:00Z,26.4966,-82.1479,2.244,-9999.0,1111122 
SCCF RECON,ioos:station:SCCF:12:1,2011-12-10T19:00:00Z,26.4966,-82.1479,2.26,-9999.0,1111122 
SCCF RECON,ioos:station:SCCF:12:1,2011-12-10T20:00:00Z,26.4966,-82.1479,2.233,-9999.0,1111122 
SCCF RECON,ioos:station:SCCF:12:1,2011-12-10T21:00:00Z,26.4966,-82.1479,2.183,-9999.0,1111122 
SCCF RECON,ioos:station:SCCF:12:1,2011-12-10T22:00:00Z,26.4966,-82.1479,2.145,-9999.0,1111122 
SCCF RECON,ioos:station:SCCF:12:1,2011-12-10T23:00:00Z,26.4966,-82.1479,2.132,-9999.0,1111122 
SCCF RECON,ioos:station:SCCF:12:1,2011-12-11T00:00:00Z,26.4966,-82.1479,2.148,-9999.0,1111122 
SCCF RECON,ioos:station:SCCF:12:1,2011-12-11T01:00:00Z,26.4966,-82.1479,2.207,-9999.0,1111122 
SCCF RECON,ioos:station:SCCF:12:1,2011-12-11T02:00:00Z,26.4966,-82.1479,2.272,-9999.0,1111122 
SCCF RECON,ioos:station:SCCF:12:1,2011-12-11T03:00:00Z,26.4966,-82.1479,2.35,-9999.0,1111122 
SCCF RECON,ioos:station:SCCF:12:1,2011-12-11T04:00:00Z,26.4966,-82.1479,2.411,-9999.0,1111122 
SCCF RECON,ioos:station:SCCF:12:1,2011-12-11T05:00:00Z,26.4966,-82.1479,2.437,-9999.0,1111122 
SCCF RECON,ioos:station:SCCF:12:1,2011-12-11T06:00:00Z,26.4966,-82.1479,2.438,-9999.0,1111122 
SCCF RECON,ioos:station:SCCF:12:1,2011-12-11T07:00:00Z,26.4966,-82.1479,2.368,-9999.0,1111122 
SCCF RECON,ioos:station:SCCF:12:1,2011-12-11T08:00:00Z,26.4966,-82.1479,2.235,-9999.0,1111122 
SCCF RECON,ioos:station:SCCF:12:1,2011-12-11T09:00:00Z,26.4966,-82.1479,2.089,-9999.0,1111122 
SCCF RECON,ioos:station:SCCF:12:1,2011-12-11T10:00:00Z,26.4966,-82.1479,1.954,-9999.0,1111122 
SCCF RECON,ioos:station:SCCF:12:1,2011-12-11T11:00:00Z,26.4966,-82.1479,1.836,-9999.0,1111122 